Location: Unspecified
(34.4950°S, 58.5160°W)
Time: 00:26:29
(UTC+00:00)

Cosmos 2219 Rocket - Pass Details

Date: 19 April 2026
Orbit: 826 x 846 km, 71.0° (Epoch: 16 May)

Event Time Altitude Azimuth Distance (km) Brightness Sun altitude
Rises 09:16:48 0° 353° (N) 3,390 5.3 -13.8°
Reaches altitude 10° 09:19:16 10° 357° (N) 2,464 4.7 -13.3°
Maximum altitude 09:24:47 55° 74° (ENE) 1,019 3.0 -12.2°
Drops below altitude 10° 09:30:21 10° 149° (SSE) 2,491 5.0 -11.0°
Sets 09:32:52 0° 153° (SSE) 3,431 5.6 -10.5°
